Location: Aciu?a
(46.2833°N, 22.4500°E)
Time: 04:22:43
(UTC+00:00)

Lacrosse 4 Rocket - Pass Details

Date: 25 October 2021
Orbit: 537 x 619 km, 68.0° (Epoch: 30 November)

Event Time Altitude Azimuth Distance (km) Brightness Sun altitude
Rises 17:33:00 0° 318° (NW) 2,823 5.7 -22.5°
Reaches altitude 10° 17:35:29 10° 306° (NW) 1,932 4.9 -22.9°
Maximum altitude 17:39:06 26° 250° (WSW) 1,190 3.6 -23.5°
Drops below altitude 10° 17:42:46 10° 193° (SSW) 1,955 4.2 -24.1°
Enters shadow 17:44:33 - 184° (S) 2,581 4.7 -24.4°
